Burlington Piers, Ontario

6:35 AM EST on December 12, 2017 (GMT -0500)
Burlington Piers

Weather History for CWWB - November, 2012

Change the Weather History Date:

Friday, November 2, 2012

  Actual Average Record
Temperature  
Mean Temperature 40 °F -  
Max Temperature 43 °F - - ()
Min Temperature 38 °F - - ()
Degree Days  
Heating Degree Days 24    
Moisture  
Dew Point 30 °F    
Average Humidity 65    
Maximum Humidity 78    
Minimum Humidity 45    
Precipitation  
Precipitation 0.00 in - - ()
Sea Level Pressure  
Sea Level Pressure 29.78 in    
Wind  
Wind Speed 9 mph ()    
Max Wind Speed 15 mph    
Max Gust Speed 21 mph    
T = Trace of Precipitation, MM = Missing Value Source: Averaged Metar Reports

Daily Weather History Graph

Daily Weather History Graph

Search for Another Location

Airport or City:

Trip Planner

Search our weather history database for the weather conditions in past years. The results will help you decide how hot, cold, wet, or windy it might be!

Date:

Astronomy

Nov. 02, 2012 Rise Set
Actual Time 7:56 AM EDT 6:08 PM EDT
Civil Twilight 7:26 AM EDT 6:38 PM EDT
Nautical Twilight 6:52 AM EDT 7:12 PM EDT
Astronomical Twilight 6:19 AM EDT 7:45 PM EDT
Moon 8:51 PM EDT (11/2) 11:18 AM EDT (11/2)
Length of Visible Light 11h 12m
Length of Day
10h 12m
Waning Gibbous, 87% of the Moon is Illuminated
Nov 2
Waning Gibbous
Nov 6
Last Quarter
Nov 13
New
Nov 20
First Quarter
Nov 28
Full

Hourly Weather History & Observations

Time (EDT) Temp. Windchill Dew Point Humidity Pressure Visibility Wind Dir Wind Speed Gust Speed Precip Events Conditions
12:00 AM 43.3 °F 39.2 °F 35.8 °F 75% 29.65 in - West 6.9 mph - N/A   Unknown
1:00 AM 43.3 °F 38.6 °F 34.9 °F 72% 29.65 in - West 8.1 mph - N/A   Unknown
2:00 AM 42 °F - 36 °F 71% 29.66 in - WNW 10.4 mph - -  
2:00 AM 42.3 °F 36.3 °F 35.8 °F 78% 29.66 in - WNW 10.4 mph - N/A   Unknown
3:00 AM 41.2 °F 36.0 °F 34.0 °F 76% 29.67 in - WNW 8.1 mph - N/A   Unknown
4:00 AM 40.5 °F 36.5 °F 34.0 °F 78% 29.68 in - West 5.8 mph - N/A   Unknown
5:00 AM 40.3 °F 36.3 °F 32.9 °F 75% 29.68 in - West 5.8 mph - N/A   Unknown
6:00 AM 39.9 °F 34.5 °F 29.8 °F 67% 29.69 in - West 8.1 mph - N/A   Unknown
7:00 AM 39.6 °F 33.0 °F 30.6 °F 70% 29.70 in - West 10.4 mph - N/A   Unknown
8:00 AM 39 °F - 30 °F 59% 29.72 in - West 9.2 mph - -  
8:00 AM 38.7 °F 32.4 °F 29.7 °F 70% 29.72 in - West 9.2 mph - N/A   Unknown
9:00 AM 38.7 °F 31.8 °F 30.4 °F 72% 29.74 in - WNW 10.4 mph - N/A   Unknown
10:00 AM 39.0 °F 31.8 °F 29.1 °F 68% 29.75 in - WNW 11.5 mph 19.6 mph N/A   Unknown
11:00 AM 40.1 °F 32.0 °F 28.0 °F 62% 29.77 in - WNW 15.0 mph - N/A   Unknown
12:00 PM 42.1 °F 35.7 °F 28.4 °F 58% 29.78 in - WNW 11.5 mph - N/A   Unknown
1:00 PM 42.1 °F 35.2 °F 28.9 °F 60% 29.79 in - WNW 12.7 mph - N/A   Unknown
2:00 PM 42 °F - 28 °F 45% 29.80 in - West 13.8 mph - -  
2:00 PM 42.1 °F 34.9 °F 27.7 °F 57% 29.80 in - West 13.8 mph 20.7 mph N/A   Unknown
3:00 PM 42.4 °F 36.1 °F 28.4 °F 58% 29.81 in - WNW 11.5 mph 17.3 mph N/A   Unknown
4:00 PM 42.4 °F 35.7 °F 26.8 °F 54% 29.83 in - WNW 12.7 mph - N/A   Unknown
5:00 PM 41.5 °F 33.8 °F 27.5 °F 57% 29.86 in - WNW 15.0 mph 20.7 mph N/A   Unknown
6:00 PM 41.2 °F 34.1 °F 27.0 °F 57% 29.88 in - WNW 12.7 mph 19.6 mph N/A   Unknown
7:00 PM 40.6 °F 33.4 °F 26.8 °F 58% 29.90 in - WNW 12.7 mph 19.6 mph N/A   Unknown
8:00 PM 40 °F - 27 °F 49% 29.91 in - West 9.2 mph - -  
8:00 PM 39.7 °F 33.7 °F 27.3 °F 61% 29.91 in - West 9.2 mph - N/A   Unknown
9:00 PM 39.6 °F 33.0 °F 28.2 °F 64% 29.92 in - WNW 10.4 mph - N/A   Unknown
10:00 PM 39.0 °F 33.4 °F 29.1 °F 68% 29.94 in - West 8.1 mph - N/A   Unknown
11:00 PM 38.8 °F 33.2 °F 29.8 °F 70% 29.94 in - West 8.1 mph - N/A   Unknown